This is the latest recevied weather packets stored in our database for station/object W1ERB-13. If no packets are shown the sender has not sent any weather packets the latest 10 day(s).
| Time | Temp. | Humidity | Pressure | Rain* | Wind** | Luminosity | Snow |
|---|---|---|---|---|---|---|---|
| 1778103099 | 14.44° C | 97% | 1006.1 hPa | 0 mm | - | 30 W/m² | - |
| 1778102796 | 14.44° C | 97% | 1006.3 hPa | 0 mm | - | 25 W/m² | - |
| 1778102491 | 14.44° C | 97% | 1006.2 hPa | 0 mm | - | 36 W/m² | - |
| 1778102187 | 14.44° C | 97% | 1006.2 hPa | 0 mm | - | 45 W/m² | - |
| 1778101884 | 14.44° C | 97% | 1006.3 hPa | 0 mm | - | 47 W/m² | - |
| 1778101581 | 14.44° C | 97% | 1006.1 hPa | 0 mm | - | 82 W/m² | - |
| 1778101277 | 14.44° C | 97% | 1006.3 hPa | 0 mm | - | 110 W/m² | - |
| 1778100974 | 14.44° C | 97% | 1006.3 hPa | 1.27 mm | - | 125 W/m² | - |
| 1778100669 | 14.44° C | 97% | 1006.5 hPa | 1.27 mm | - | 90 W/m² | - |
| 1778100367 | 14.44° C | 97% | 1006.3 hPa | 1.27 mm | - | 107 W/m² | - |
| 1778100064 | 14.44° C | 97% | 1006.6 hPa | 1.78 mm | - | 101 W/m² | - |
| 1778099763 | 14.44° C | 97% | 1006.5 hPa | 1.78 mm | - | 86 W/m² | - |
| 1778099458 | 14.44° C | 97% | 1006.5 hPa | 3.05 mm | - | 92 W/m² | - |
| 1778099156 | 15° C | 96% | 1006.6 hPa | 1.27 mm | - | 72 W/m² | - |
| 1778098852 | 15° C | 96% | 1006.8 hPa | 1.78 mm | - | 107 W/m² | - |
| 1778098550 | 14.44° C | 95% | 1006.9 hPa | 1.78 mm | - | 68 W/m² | - |
| 1778098246 | 14.44° C | 95% | 1006.8 hPa | 0 mm | - | 62 W/m² | - |
| 1778097942 | 15° C | 95% | 1006.7 hPa | 0 mm | - | 50 W/m² | - |
| 1778097639 | 15° C | 95% | 1006.6 hPa | 0 mm | - | 76 W/m² | - |
| 1778097336 | 15° C | 95% | 1006.7 hPa | 0 mm | - | 85 W/m² | - |
| 1778097032 | 15° C | 96% | 1006.9 hPa | 0 mm | - | 69 W/m² | - |
| 1778096730 | 15° C | 96% | 1007.1 hPa | 0 mm | - | 90 W/m² | - |
| 1778096427 | 15° C | 96% | 1006.8 hPa | 0 mm | - | 80 W/m² | - |
| 1778096124 | 14.44° C | 96% | 1007 hPa | 0 mm | - | 80 W/m² | - |
| 1778095821 | 15° C | 96% | 1006.9 hPa | 0 mm | - | 71 W/m² | - |
* Rain latest hour (hover to see other rain measurements)
** Current wind speed in m/s (hover to see current wind gust speed)